Vancouver, WA
on Thursday, November 15, 2012

Thursday
Previous Day Next Day
Daily Summary
 ActualAverageRecord
Temperature
Mean Temperature °F 47°F  
Max Temperature 54°F 53°F 64°F (1895)
Min Temperature 39°F 40°F 10°F (1955)
Degree Days
Heating Degree Days 18    
Month to date heating degree days 219  
Since 1 July heating degree days 538  
Cooling Degree Days 0    
Month to date cooling degree days 0  
Year to date cooling degree days 398  
Moisture
Dew Point 39°F   
Average Humidity 77    
Maximum Humidity 100    
Minimum Humidity 54    
Precipitation
Precipitation 0.00 in 0.20 in 1.31 in (1915)
Month to date precipitation 1.37 2.74  
Year to date precipitation 32.53 29.20  
Snow
Snow 0.00 in in in ()
Month to date snowfall 0.0  
Snow Depth 0.00 in   
Wind
Wind Speed 3 mph   
Max Wind Speed 15 mph   
Max Gust Speed 18 mph   
Visibility 4 miles   
Events Fog   

Key: T is trace of precipitation, MM is missing value
Source: NWS Daily Summary
Time(PST)TemperatureDew PointHumidity Pressure Visibility Wind DirectionWind SpeedGust SpeedPrecipitationEvents Conditions
12:01 AM 39.2°F 39.2°F 100% 30.22 in 3.0 miles Calm Calm - N/A   Mostly Cloudy
12:14 AM 42.8°F 41.0°F 93% 30.21 in 8.0 miles Calm Calm - N/A   Scattered Clouds
12:43 AM 41.0°F 39.2°F 93% 30.21 in 2.5 miles NW 5.8 mph - N/A   Mostly Cloudy
12:46 AM 41.0°F 39.2°F 93% 30.21 in 1.2 miles Calm Calm - N/A   Mostly Cloudy
12:53 AM 39.9°F 39.0°F 97% 30.21 in 1.2 miles Calm Calm - N/A   Mostly Cloudy
12:57 AM 39.2°F 39.2°F 100% 30.20 in 2.0 miles Calm Calm - N/A   Overcast
1:10 AM 39.2°F 39.2°F 100% 30.20 in 1.2 miles Calm Calm - N/A   Overcast
1:27 AM 39.2°F 39.2°F 100% 30.19 in 0.8 miles WNW 3.5 mph - N/A   Overcast
1:48 AM 39.2°F 39.2°F 100% 30.19 in 1.5 miles Calm Calm - 0.01 in   Overcast
1:53 AM 39.9°F 39.0°F 97% 30.19 in 1.8 miles Calm Calm - 0.01 in   Overcast
2:03 AM 39.2°F 39.2°F 100% 30.18 in 3.0 miles Calm Calm - N/A   Overcast
2:26 AM 39.2°F 37.4°F 93% 30.18 in 1.5 miles Calm Calm - N/A   Overcast
2:31 AM 39.2°F 39.2°F 100% 30.18 in 0.8 miles Calm Calm - N/A   Overcast
2:53 AM 39.9°F 39.0°F 97% 30.17 in 0.2 miles Calm Calm - N/A Fog Fog
3:04 AM 39.2°F 39.2°F 100% 30.17 in 0.5 miles Calm Calm - N/A Fog Fog
3:13 AM 39.2°F 39.2°F 100% 30.16 in 1.5 miles Calm Calm - N/A   Overcast
3:21 AM 39.2°F 39.2°F 100% 30.16 in 3.0 miles Calm Calm - N/A   Overcast
3:53 AM 41.0°F 39.9°F 96% 30.15 in 6.0 miles Variable 3.5 mph - N/A   Mostly Cloudy
4:29 AM 41.0°F 39.2°F 93% 30.14 in 1.8 miles Calm Calm - N/A   Overcast
4:38 AM 41.0°F 39.2°F 93% 30.14 in 1.0 miles Calm Calm - N/A   Overcast
4:53 AM 41.0°F 39.9°F 96% 30.14 in 0.8 miles Calm Calm - N/A   Overcast
5:36 AM 39.2°F 39.2°F 100% 30.12 in 0.2 miles Calm Calm - N/A Fog Fog
5:53 AM 39.9°F 39.0°F 97% 30.12 in 0.5 miles Calm Calm - N/A Fog Fog
6:14 AM 39.2°F 39.2°F 100% 30.11 in 0.2 miles Calm Calm - N/A Fog Fog
6:53 AM 39.9°F 39.0°F 97% 30.10 in 0.2 miles Calm Calm - N/A Fog Fog
7:53 AM 41.0°F 39.9°F 96% 30.10 in 0.2 miles Calm Calm - N/A Fog Fog
8:37 AM 41.0°F 39.2°F 93% 30.09 in 0.5 miles NW 4.6 mph - N/A Fog Fog
8:53 AM 41.0°F 39.9°F 96% 30.09 in 1.0 miles NW 5.8 mph - N/A   Overcast
9:05 AM 42.8°F 41.0°F 93% 30.09 in 1.8 miles NNW 3.5 mph - N/A   Overcast
9:28 AM 42.8°F 41.0°F 93% 30.08 in 2.5 miles NW 3.5 mph - N/A   Overcast
9:36 AM 42.8°F 41.0°F 93% 30.08 in 3.0 miles NW 4.6 mph - N/A   Overcast
9:53 AM 43.0°F 42.1°F 97% 30.08 in 7.0 miles NW 3.5 mph - N/A   Mostly Cloudy
10:01 AM 42.8°F 42.8°F 100% 30.08 in 8.0 miles NW 3.5 mph - N/A   Scattered Clouds
10:53 AM 48.0°F 42.1°F 80% 30.06 in 10.0 miles Calm Calm - N/A   Clear
11:53 AM 52.0°F 39.9°F 63% 30.03 in 10.0 miles Calm Calm - N/A   Clear
12:53 PM 54.0°F 37.0°F 53% 30.01 in 10.0 miles ESE 9.2 mph 16.1 mph N/A   Clear
1:53 PM 54.0°F 37.0°F 53% 30.00 in 10.0 miles ESE 8.1 mph - N/A   Clear
2:53 PM 53.1°F 37.9°F 57% 29.99 in 10.0 miles SE 9.2 mph - N/A   Clear
3:53 PM 51.1°F 37.9°F 61% 29.99 in 10.0 miles SE 8.1 mph - N/A   Clear
4:53 PM 46.9°F 37.9°F 71% 29.98 in 10.0 miles SE 4.6 mph - N/A   Clear
5:53 PM 46.0°F 37.0°F 71% 29.98 in 10.0 miles ESE 6.9 mph - N/A   Clear
6:53 PM 45.0°F 37.0°F 74% 29.98 in 10.0 miles ESE 3.5 mph - N/A   Clear
7:53 PM 45.0°F 37.0°F 74% 29.98 in 10.0 miles SSE 5.8 mph - N/A   Clear
8:53 PM 44.1°F 37.0°F 76% 29.97 in 10.0 miles Calm Calm - N/A   Clear
9:53 PM 41.0°F 36.0°F 82% 29.97 in 10.0 miles Calm Calm - N/A   Clear
10:53 PM 41.0°F 37.0°F 86% 29.96 in 10.0 miles Calm Calm - N/A   Scattered Clouds
11:53 PM 42.1°F 37.0°F 82% 29.96 in 10.0 miles Calm Calm - N/A   Overcast
Moon Phase
Nov. 15 Nov. 20 Nov. 28 Dec. 06 Dec. 13
Sunrise:07:10 AM (PST) Moon Rise:09:15 AM (PST)11/15
Sunset:04:39 PM (PST) Moon Set:06:33 PM (PST)11/15

Copyright © 2014 The Weather Underground, Inc.